Lapse_Rate
5.1 5.1 5.2 5.3 5.3 5.3 5.1 5.0 4.9 4.9 5.0 5.0 4.9 4.9 5.1 5.1 5.2 5.8 6.4 6.3 6.7 6.2 6.8 7.2 7.4 7.8 7.9 6.4 6.8 7.5 7.0 6.9 7.8 8.4 8.8 8.7 7.8 7.0 6.7 6.7 6.1 6.7 6.6 6.6 6.1
5.1 5.1 5.2 5.2 5.3 5.4 5.4 5.3 5.1 5.0 4.9 4.9 5.0 5.0 5.0 5.0 5.3 5.8 5.8 6.2 6.7 6.8 6.6 7.0 7.5 7.7 8.1 7.1 7.4 7.3 7.3 7.5 8.1 8.1 8.7 8.5 7.9 7.6 6.8 6.2 6.0 6.4 6.3 6.1 6.6
5.2 5.2 5.2 5.3 5.4 5.5 5.5 5.5 5.4 5.3 5.0 5.0 5.0 5.0 5.1 5.0 5.2 5.7 5.7 6.0 6.4 6.8 6.9 6.8 7.0 7.0 7.2 7.4 6.9 7.6 8.6 8.9 8.5 8.5 8.7 8.7 8.5 7.9 7.7 6.7 6.5 6.7 5.9 6.0 6.5
5.3 5.3 5.3 5.3 5.3 5.4 5.5 5.5 5.5 5.5 5.3 5.1 5.0 5.0 5.1 5.0 5.0 5.2 5.5 5.6 5.9 6.4 6.8 7.0 6.9 7.1 7.0 7.1 7.5 8.0 8.7 9.3 8.9 8.9 9.3 8.8 8.4 8.2 7.6 6.9 6.5 6.8 6.2 6.5 5.8
5.5 5.4 5.4 5.4 5.4 5.4 5.4 5.5 5.5 5.5 5.5 5.4 5.2 5.1 5.2 5.3 5.6 5.2 5.5 5.6 5.6 6.1 6.8 7.3 7.1 7.2 7.1 7.4 7.5 8.1 8.9 9.5 9.6 9.1 9.2 8.9 8.0 8.4 7.7 7.3 7.0 6.9 6.5 5.8 5.8
5.5 5.5 5.6 5.6 5.6 5.5 5.4 5.4 5.5 5.4 5.4 5.4 5.4 5.4 5.3 5.9 5.4 5.5 5.2 5.8 5.5 5.8 6.4 7.0 7.4 7.4 7.3 7.6 7.6 8.5 9.2 9.5 9.7 9.4 9.5 9.1 8.6 8.4 7.8 7.3 6.9 6.9 6.6 6.5 6.0
5.7 5.6 5.6 5.8 5.8 5.8 5.7 5.6 5.5 5.4 5.4 5.2 5.3 5.5 5.8 6.3 5.4 5.6 5.6 5.6 5.7 5.8 6.2 6.8 7.7 7.2 7.1 7.5 7.6 8.0 9.1 9.7 9.8 9.7 9.6 9.1 7.8 8.2 7.8 7.3 6.9 7.0 6.7 6.5 6.2
5.7 5.6 5.7 5.7 5.8 5.9 5.8 5.7 5.6 5.5 5.4 5.3 5.2 5.5 6.7 6.2 5.4 5.7 5.7 5.6 5.7 5.8 5.9 6.3 6.7 7.0 7.1 7.3 7.5 7.7 8.5 9.1 9.6 9.8 9.6 9.3 8.8 8.0 8.1 7.4 6.9 6.8 6.9 6.4 6.0
5.4 5.3 5.4 5.6 5.7 5.8 5.7 5.8 5.6 5.4 5.6 5.4 5.2 5.5 6.7 6.3 6.4 6.0 5.8 5.7 5.4 5.4 5.6 5.8 5.8 6.5 7.1 7.3 7.4 7.5 7.8 8.7 9.4 9.7 9.7 9.2 7.7 8.3 7.5 7.4 6.8 6.8 6.6 6.0 5.8
5.5 5.4 5.3 5.4 5.6 5.7 5.6 5.5 5.4 5.5 5.4 5.3 5.5 5.6 6.1 6.2 6.3 6.4 6.1 5.5 5.2 5.2 5.4 5.5 5.6 5.8 6.1 6.7 6.8 7.4 7.7 8.3 9.3 9.5 9.3 9.1 8.6 8.1 7.8 7.3 7.2 6.8 6.8 6.3 5.8
5.9 5.8 5.8 5.5 5.5 5.6 5.4 5.3 5.1 5.1 5.6 5.4 5.4 6.3 5.9 6.0 5.5 5.8 6.0 5.4 5.2 5.3 5.4 5.5 5.6 5.4 5.8 6.5 7.2 7.8 8.0 8.6 9.4 9.6 9.5 8.8 8.9 8.4 8.4 7.3 7.1 7.1 7.0 6.6 6.2
5.5 5.7 5.7 5.4 5.4 5.4 5.4 5.1 4.7 4.7 5.7 6.0 6.1 6.3 6.2 5.5 5.4 5.6 5.6 5.5 5.3 5.4 5.6 5.5 5.3 6.0 6.3 6.8 7.2 7.8 7.9 8.1 9.4 9.9 9.4 8.7 8.6 8.3 8.7 7.9 7.6 6.9 7.0 6.9 6.5
5.3 5.4 5.6 5.4 5.0 5.1 4.7 4.9 4.8 4.6 4.4 6.9 6.9 6.4 7.2 5.2 6.0 5.7 5.5 5.7 5.6 5.5 5.7 5.7 6.0 6.3 6.5 6.8 7.0 7.5 7.9 8.0 9.1 9.5 9.3 9.0 8.5 8.0 8.5 8.4 7.8 6.9 7.4 7.3 6.9
4.7 5.0 5.2 5.2 4.8 4.7 4.2 5.3 4.8 3.7 3.9 6.1 6.8 7.2 6.9 5.9 5.4 5.8 5.9 5.8 5.6 5.7 5.9 6.0 6.1 6.2 6.6 6.7 7.1 7.2 8.1 8.2 8.9 9.6 8.3 8.9 7.9 8.4 8.7 8.0 7.9 7.4 7.7 7.5 7.2
4.1 4.1 4.6 4.7 4.9 4.4 3.7 4.6 4.0 4.2 3.2 6.6 6.3 6.2 7.1 6.5 7.1 6.3 5.9 5.7 5.7 5.9 6.1 6.0 6.3 6.3 6.4 6.7 7.5 7.1 8.2 8.5 8.9 9.4 9.5 9.1 9.2 9.0 8.4 7.7 7.9 8.1 8.0 7.7 7.5
3.8 3.6 4.1 3.8 4.8 4.1 4.3 4.6 4.3 4.0 3.4 7.0 6.5 6.4 6.8 6.7 6.9 7.0 6.5 6.0 6.1 6.0 6.0 6.3 6.3 6.5 6.6 7.0 7.6 7.8 8.2 8.5 8.8 9.3 9.1 9.4 8.3 8.9 8.7 7.9 8.2 8.3 8.1 8.1 8.0
4.0 3.6 3.3 4.0 3.7 3.9 3.7 3.8 4.0 3.6 5.6 6.4 7.0 6.6 6.6 6.6 7.0 6.9 6.1 6.3 6.0 6.1 5.9 6.2 6.3 6.6 7.0 7.1 7.5 8.3 8.2 8.1 7.9 8.3 7.9 9.6 9.2 8.5 9.1 9.2 9.1 8.2 8.7 8.3 8.0
4.1 3.5 3.5 3.2 3.8 3.1 3.2 3.4 3.1 4.3 5.2 8.0 7.7 6.8 6.4 6.6 6.5 6.6 6.5 6.1 6.3 6.2 6.3 6.2 6.3 6.7 6.9 7.2 7.4 7.5 8.5 7.7 6.2 7.0 7.7 9.3 9.0 7.9 8.6 9.5 9.6 8.6 8.5 8.6 8.6
3.6 3.5 3.5 3.0 3.0 3.0 2.9 2.6 3.4 4.0 5.9 5.4 6.4 6.4 6.9 7.1 6.9 7.0 6.6 6.4 6.6 6.6 6.5 6.6 6.3 7.0 7.1 7.5 7.8 8.1 7.5 8.3 8.6 8.8 8.4 8.6 9.2 9.3 9.4 9.4 9.4 9.3 9.0 8.7 8.7
2.1 3.2 3.9 2.5 2.2 2.6 1.8 1.9 2.8 4.6 4.6 4.9 3.7 5.2 5.1 6.2 6.3 7.8 7.6 7.1 6.5 7.0 7.1 6.9 7.2 7.3 7.6 7.7 7.9 8.0 8.3 8.6 8.7 7.5 7.4 8.2 8.9 8.9 9.4 9.4 9.2 9.0 9.1 8.9 8.8
1.4 1.4 4.2 2.8 2.0 1.5 1.1 1.5 2.4 3.2 4.4 4.2 4.2 4.2 4.6 4.7 5.1 5.8 5.2 7.7 8.2 7.5 7.7 7.6 7.5 7.3 7.9 7.9 8.0 7.8 7.8 8.3 8.8 8.8 7.6 7.3 7.6 8.7 9.4 9.4 9.2 8.9 8.9 8.9 8.8
1.1 0.9 4.1 3.8 3.0 2.6 2.3 2.6 3.2 3.2 3.9 4.6 4.5 4.3 4.5 4.9 5.2 5.3 4.9 5.7 9.2 9.2 8.9 8.1 8.2 7.5 7.4 7.9 8.6 8.4 8.1 8.5 8.1 7.7 8.9 8.8 7.5 8.7 9.3 9.3 9.8 9.5 9.0 9.1 9.1
1.3 1.8 4.9 5.5 3.5 4.2 4.2 4.2 4.8 4.8 4.6 4.6 4.6 5.0 5.5 5.4 5.4 5.5 5.5 6.4 7.8 8.1 9.4 9.4 8.2 8.2 7.9 8.2 8.0 8.6 8.8 8.4 8.6 8.6 8.0 7.5 7.2 8.7 9.0 9.3 9.3 8.9 9.2 9.4 9.5
2.1 2.8 5.6 6.5 5.9 6.2 6.7 4.9 5.0 5.3 5.0 4.8 4.1 4.9 4.6 5.4 5.9 5.4 5.3 6.3 7.2 7.9 8.3 8.6 9.4 8.3 7.4 7.5 8.4 8.6 9.1 9.1 8.7 8.1 7.4 7.4 7.6 7.8 8.9 9.1 9.7 8.8 9.4 9.4 9.5
5.7 5.4 6.1 6.1 7.4 6.6 6.4 5.7 6.2 5.8 5.9 5.4 4.7 3.6 4.3 3.6 4.0 5.1 5.6 5.6 6.7 7.5 7.6 7.9 8.8 9.3 8.5 8.6 9.0 8.6 9.3 9.5 9.1 8.2 8.2 7.6 8.1 8.0 8.5 8.9 9.4 9.6 9.5 9.3 9.7
7.2 6.8 6.9 6.8 7.0 7.1 7.1 7.3 7.6 7.1 6.1 5.8 5.7 5.6 5.1 4.2 4.0 3.9 3.5 4.0 4.4 7.1 7.1 8.0 8.4 9.5 9.5 9.3 9.1 8.9 9.2 9.4 9.6 9.4 9.0 8.7 8.1 8.6 9.0 9.3 9.6 9.6 9.5 9.6 9.6
7.4 7.2 7.1 6.9 7.0 7.0 7.1 7.2 7.3 7.0 7.4 6.8 6.4 5.6 6.7 5.7 4.3 4.2 4.4 4.1 3.7 5.0 6.1 6.6 7.5 9.0 9.1 9.4 9.4 9.2 8.5 9.2 9.5 9.6 9.5 9.1 8.2 8.8 8.9 9.0 9.5 9.8 9.7 9.3 9.0
Wind_Speed
24 23 23 24 25 25 24 24 24 25 25 23 23 22 21 22 24 4 9 12 9 16 5 5 12 12 13 9 10 4 4 4 5 3 6 12 19 19 21 28 19 6 20 24 23
25 25 25 25 26 26 26 25 24 25 26 25 23 24 20 21 6 12 19 22 22 14 9 11 11 13 8 6 9 7 5 13 13 7 4 19 23 16 19 17 9 24 21 23 25
26 27 27 27 27 27 27 27 26 26 26 25 24 23 20 18 6 7 9 28 24 17 15 10 10 12 13 13 12 9 7 9 17 15 8 10 15 12 15 10 20 25 26 26 26
29 29 29 30 29 28 28 29 28 28 26 24 22 21 20 4 6 3 4 13 15 12 9 11 9 9 10 14 16 7 12 9 4 14 6 7 11 12 14 19 24 25 24 28 24
30 30 30 31 32 32 30 29 29 28 27 23 19 16 8 4 13 9 5 1 7 6 13 14 13 12 13 14 16 12 14 16 15 16 11 12 4 20 15 27 26 23 19 26 23
28 29 30 31 32 32 33 32 29 29 27 22 15 8 4 10 9 12 14 8 11 10 10 13 8 14 9 16 14 17 15 10 15 18 13 21 10 10 23 27 27 25 18 13 14
29 30 30 31 32 34 35 34 33 30 26 20 10 5 6 20 6 5 15 11 9 11 10 12 15 11 7 13 17 16 14 15 6 4 7 22 12 17 22 27 26 24 20 15 12
30 32 34 35 34 35 35 36 37 34 23 15 6 5 9 9 22 18 18 16 11 10 11 11 13 13 7 9 15 13 8 6 8 10 12 15 25 13 17 24 23 23 21 18 15
28 31 35 38 38 37 38 41 39 25 11 6 5 5 10 10 9 13 13 12 12 12 12 14 8 10 8 8 7 7 9 11 15 7 10 9 10 15 14 21 21 22 20 18 15
29 30 33 37 40 39 40 41 20 1 4 8 8 2 9 10 9 12 15 17 9 8 10 9 6 7 9 6 10 8 8 13 14 9 9 11 11 14 8 7 21 20 20 19 18
29 32 34 37 40 39 22 7 4 0 5 8 9 7 21 9 7 11 13 11 9 8 11 11 8 16 13 14 11 14 15 16 19 9 7 5 14 10 12 7 9 20 20 21 21
30 32 34 39 42 43 11 4 13 9 12 15 25 26 27 19 13 15 18 13 12 14 11 10 18 12 12 11 18 20 19 20 15 12 12 13 16 14 11 16 12 19 21 22 21
31 32 34 38 47 16 10 12 13 13 7 15 23 18 25 19 23 16 13 17 15 17 16 17 9 16 18 17 18 21 20 16 10 9 9 10 3 4 14 6 14 19 22 22 24
31 33 31 36 11 10 8 18 17 10 5 8 8 10 13 15 15 25 19 15 11 18 17 14 17 18 22 21 19 18 22 20 19 10 14 15 7 9 15 14 15 18 21 22 22
30 31 31 22 8 6 9 15 19 7 6 6 7 6 11 21 9 24 18 18 18 17 10 19 18 20 21 23 19 21 13 19 21 15 9 12 4 10 19 18 21 21 23 22 22
32 33 30 10 5 15 21 19 7 2 9 7 8 8 13 20 18 3 25 19 9 15 17 18 11 19 20 16 21 16 14 17 17 12 10 15 16 6 14 28 22 20 19 24 22
36 36 25 15 5 9 13 5 2 7 8 8 5 11 17 13 22 24 19 25 21 17 20 19 22 19 20 18 14 19 8 12 12 11 9 12 13 9 21 16 26 24 19 19 21
34 40 15 10 14 16 3 2 10 8 13 19 12 12 14 13 19 24 21 24 25 20 8 15 18 23 13 20 15 16 16 12 13 14 9 9 12 13 18 14 23 25 16 22 19
33 7 8 9 19 9 6 9 6 8 9 14 20 10 15 16 14 19 23 20 23 26 20 15 18 8 24 20 18 11 21 14 5 8 6 8 9 11 15 19 16 17 19 22 19
10 6 9 14 14 8 8 15 9 13 24 17 9 11 10 16 15 16 21 20 21 25 24 10 7 20 21 22 17 19 6 11 14 15 19 16 10 12 8 18 14 12 13 17 17
4 6 9 14 6 9 14 10 16 20 23 14 18 24 24 24 18 22 14 23 23 25 27 25 17 18 15 19 23 12 17 12 7 13 12 10 16 8 10 16 16 18 20 17 29
5 5 10 13 7 8 13 18 22 23 22 23 17 23 26 25 28 24 24 20 17 27 24 24 15 16 25 17 24 24 13 11 9 6 4 8 15 9 13 7 26 30 20 11 9
5 9 12 8 5 9 13 21 22 22 20 21 22 24 21 25 22 21 25 28 24 21 24 16 19 11 17 17 19 26 19 14 15 5 12 5 14 18 17 3 6 4 7 6 8
4 5 5 7 6 13 15 12 14 16 18 20 18 18 17 20 16 17 24 21 24 23 16 11 19 27 19 19 5 9 22 20 17 13 16 22 14 18 5 7 14 14 11 8 10
3 5 10 8 13 19 15 6 18 13 12 14 11 18 22 14 23 12 14 21 20 24 14 5 19 20 26 19 14 24 14 25 22 21 16 13 16 14 10 9 9 10 9 9 7
3 4 5 9 14 17 15 14 16 14 11 14 10 14 17 10 16 20 19 17 11 15 19 12 8 12 17 26 25 26 19 20 25 22 19 17 18 6 6 11 13 9 14 12 7
3 3 2 6 9 11 11 17 20 3 7 12 16 14 18 17 10 17 19 21 21 24 22 10 5 3 8 7 5 20 28 18 11 17 18 17 18 7 9 6 8 4 4 6 8
Wind_Direction
356 353 350 347 345 342 339 336 333 329 327 325 323 322 324 322 313 211 245 229 210 181 159 212 195 212 218 141 158 162 119 285 293 278 147 99 108 117 123 132 143 185 145 156 151
354 350 347 344 341 338 334 332 328 326 323 323 322 321 323 326 290 260 239 222 250 168 202 229 215 201 216 182 178 163 174 191 189 220 254 129 132 140 142 127 133 128 141 151 145
352 347 343 340 338 334 331 327 323 322 321 319 321 320 319 320 279 246 324 210 232 186 215 232 246 251 235 232 194 219 221 170 209 261 227 147 128 129 133 135 150 140 152 158 154
350 346 341 338 335 331 327 323 319 318 318 318 318 319 313 274 291 88 336 137 166 184 238 240 249 258 253 256 244 183 246 215 194 195 177 130 138 142 162 150 147 143 149 158 162
345 341 338 336 332 328 324 319 316 315 315 314 315 320 324 231 243 233 129 164 145 178 213 222 226 237 236 254 262 246 235 238 225 168 203 145 198 165 147 137 138 141 162 155 167
340 337 334 332 329 324 320 317 312 311 310 309 309 309 243 248 254 239 177 168 212 196 209 217 228 227 246 256 264 270 290 273 236 173 176 143 178 119 140 141 143 147 165 170 177
336 334 331 329 326 322 318 314 310 307 302 300 294 225 252 239 254 162 176 185 204 226 217 224 238 256 252 264 273 283 290 291 236 176 162 89 8 144 148 143 147 152 162 181 188
334 331 329 326 325 322 318 313 307 300 289 282 241 205 250 251 240 245 254 258 205 226 210 225 224 246 258 284 285 279 293 290 264 198 156 102 196 219 149 144 152 157 165 179 192
331 329 327 325 323 322 319 313 303 292 257 205 173 241 264 261 221 237 212 237 202 220 210 231 222 223 262 255 291 281 258 269 260 189 156 110 157 173 159 152 157 162 168 179 189
329 329 325 322 321 323 322 311 286 335 180 178 267 293 255 253 211 203 225 218 210 221 240 231 225 231 217 209 225 239 247 255 254 192 104 122 177 153 161 126 161 164 170 178 188
330 329 327 322 320 320 331 340 314 104 235 222 188 238 289 276 240 190 198 201 195 224 216 216 212 223 217 217 231 246 247 250 250 176 93 124 172 199 186 173 203 170 172 177 186
330 331 328 323 319 316 302 263 297 301 289 254 251 243 252 264 280 233 172 183 196 220 206 220 223 220 233 220 222 245 254 265 295 166 115 176 187 215 222 204 187 184 178 179 181
329 329 329 326 317 306 318 273 277 333 278 278 235 235 225 231 245 225 180 184 192 214 214 220 226 214 231 228 224 228 242 258 244 246 120 158 281 235 252 177 200 195 180 183 181
325 327 331 337 321 339 292 338 342 318 287 268 207 236 212 220 244 238 196 204 215 211 227 224 225 219 219 232 225 227 231 248 257 247 207 176 214 223 219 198 212 205 186 185 186
323 324 327 327 288 293 315 325 311 309 302 243 195 141 157 180 141 226 218 201 206 212 190 225 214 228 226 223 231 235 228 236 252 256 158 230 224 206 194 208 225 190 191 189 185
321 321 326 319 288 257 291 291 286 250 244 273 146 161 141 201 230 318 205 229 229 219 224 236 220 229 234 239 221 243 230 249 253 253 225 205 211 248 187 198 203 194 190 187 190
319 319 312 279 241 301 339 304 199 229 270 232 186 168 191 180 210 235 212 211 212 205 222 232 232 244 220 235 225 219 216 238 249 241 237 204 204 204 237 209 195 195 196 187 184
317 312 284 241 230 256 277 276 234 235 223 297 312 290 209 207 204 212 232 200 212 226 198 218 237 227 222 221 221 211 213 223 221 230 250 244 205 224 208 209 183 183 189 183 194
317 304 279 253 235 217 239 225 208 204 278 357 337 313 268 205 208 208 224 206 205 209 220 206 233 232 227 238 213 231 215 222 266 257 263 236 267 262 205 222 190 178 178 188 199
319 293 264 263 239 188 225 238 261 296 322 333 313 286 317 320 324 206 212 221 206 203 213 248 251 219 240 223 236 209 191 203 223 231 245 251 245 241 230 204 174 182 197 207 189
272 303 277 291 221 203 230 239 261 272 283 294 293 284 287 295 293 289 288 223 216 201 203 216 240 253 227 218 214 226 219 226 194 222 234 239 249 247 232 179 176 196 197 191 202
300 288 290 343 319 225 245 254 261 265 268 276 275 281 285 290 290 285 278 266 268 206 209 201 213 237 249 257 208 216 206 203 223 263 253 237 256 261 242 176 193 191 189 201 173
300 292 275 264 255 265 278 272 270 272 276 286 292 288 286 275 282 272 283 286 282 295 219 200 212 220 248 261 253 209 210 200 219 168 235 192 251 251 256 151 116 156 239 216 225
294 310 299 333 279 279 285 308 325 321 318 325 318 327 333 302 283 289 296 288 292 275 285 317 208 211 222 233 235 224 207 202 198 219 236 242 259 271 282 219 181 199 225 174 229
268 265 313 306 321 327 311 231 292 299 331 351 332 351 333 318 316 310 345 334 322 315 314 310 245 207 214 221 224 240 233 204 205 210 206 235 230 242 236 218 211 189 193 210 194
272 316 337 300 303 314 304 291 305 345 333 315 305 333 327 323 292 316 330 325 299 333 341 328 282 190 206 211 219 241 241 237 209 216 228 232 251 219 229 207 208 209 188 175 194
241 274 281 294 300 298 301 322 316 13 305 314 315 317 310 301 307 281 283 277 266 279 288 280 349 264 206 175 233 236 231 245 245 216 202 214 235 222 263 224 184 206 235 158 226